TimePST,TemperatureF,Dew PointF,Humidity,Sea Level PressureIn,VisibilityMPH,Wind Direction,Wind SpeedMPH,Gust SpeedMPH,PrecipitationIn,Events,Conditions,WindDirDegrees,DateUTC
12:15 AM,41.0,21.2,45,30.36,10.0,SSE,20.7,31.1,N/A,,Clear,160,2012-11-23 08:15:00
12:35 AM,39.2,21.2,49,30.36,10.0,South,17.3,-,N/A,,Clear,170,2012-11-23 08:35:00
12:55 AM,41.0,21.2,45,30.35,10.0,South,24.2,28.8,N/A,,Clear,170,2012-11-23 08:55:00
1:15 AM,42.8,21.2,42,30.35,10.0,South,24.2,31.1,N/A,,Clear,180,2012-11-23 09:15:00
1:35 AM,42.8,21.2,42,30.36,10.0,South,21.9,32.2,N/A,,Clear,170,2012-11-23 09:35:00
1:55 AM,41.0,21.2,45,30.35,10.0,SSE,17.3,25.3,N/A,,Clear,160,2012-11-23 09:55:00
2:15 AM,41.0,21.2,45,30.35,10.0,SSE,16.1,24.2,N/A,,Clear,150,2012-11-23 10:15:00
2:35 AM,42.8,21.2,42,30.35,10.0,South,23.0,32.2,N/A,,Clear,170,2012-11-23 10:35:00
2:55 AM,42.8,21.2,42,30.34,10.0,South,20.7,34.5,N/A,,Clear,170,2012-11-23 10:55:00
3:15 AM,42.8,21.2,42,30.33,10.0,SSE,23.0,32.2,N/A,,Clear,160,2012-11-23 11:15:00
3:35 AM,42.8,21.2,42,30.32,10.0,SSE,20.7,32.2,N/A,,Clear,160,2012-11-23 11:35:00
3:55 AM,42.8,21.2,42,30.33,10.0,South,28.8,35.7,N/A,,Clear,180,2012-11-23 11:55:00
4:15 AM,42.8,21.2,42,30.32,10.0,South,24.2,33.4,N/A,,Clear,190,2012-11-23 12:15:00
4:35 AM,42.8,21.2,42,30.32,10.0,South,24.2,38.0,N/A,,Clear,190,2012-11-23 12:35:00
4:55 AM,42.8,21.2,42,30.33,10.0,South,29.9,34.5,N/A,,Clear,190,2012-11-23 12:55:00
5:15 AM,42.8,21.2,42,30.32,10.0,South,26.5,35.7,N/A,,Clear,180,2012-11-23 13:15:00
5:35 AM,42.8,21.2,42,30.32,10.0,South,27.6,32.2,N/A,,Clear,180,2012-11-23 13:35:00
5:55 AM,42.8,21.2,42,30.33,10.0,SSE,25.3,31.1,N/A,,Clear,160,2012-11-23 13:55:00
6:15 AM,42.8,21.2,42,30.33,10.0,South,23.0,31.1,N/A,,Clear,170,2012-11-23 14:15:00
6:35 AM,42.8,21.2,42,30.33,10.0,South,25.3,34.5,N/A,,Clear,180,2012-11-23 14:35:00
6:55 AM,42.8,21.2,42,30.32,10.0,South,26.5,33.4,N/A,,Clear,190,2012-11-23 14:55:00
7:15 AM,42.8,21.2,42,30.33,10.0,South,21.9,32.2,N/A,,Clear,170,2012-11-23 15:15:00
7:35 AM,42.8,21.2,42,30.33,10.0,South,25.3,34.5,N/A,,Clear,180,2012-11-23 15:35:00
7:55 AM,42.8,21.2,42,30.32,10.0,South,25.3,32.2,N/A,,Clear,170,2012-11-23 15:55:00
8:15 AM,42.8,21.2,42,30.32,10.0,South,27.6,34.5,N/A,,Clear,190,2012-11-23 16:15:00
8:35 AM,42.8,21.2,42,30.32,10.0,South,28.8,36.8,N/A,,Clear,190,2012-11-23 16:35:00
8:55 AM,44.6,23.0,43,30.32,10.0,South,27.6,42.6,N/A,,Clear,190,2012-11-23 16:55:00
9:15 AM,44.6,21.2,39,30.33,10.0,South,32.2,43.7,N/A,,Clear,190,2012-11-23 17:15:00
9:35 AM,44.6,21.2,39,30.32,10.0,South,27.6,38.0,N/A,,Clear,190,2012-11-23 17:35:00
9:55 AM,44.6,21.2,39,30.32,10.0,South,26.5,33.4,N/A,,Clear,180,2012-11-23 17:55:00
10:15 AM,44.6,21.2,39,30.32,10.0,South,25.3,38.0,N/A,,Clear,180,2012-11-23 18:15:00
10:35 AM,44.6,23.0,43,30.30,10.0,South,26.5,33.4,N/A,,Clear,190,2012-11-23 18:35:00
10:55 AM,44.6,23.0,43,30.30,10.0,South,24.2,40.3,N/A,,Clear,190,2012-11-23 18:55:00
11:15 AM,46.4,23.0,40,30.30,10.0,South,24.2,34.5,N/A,,Clear,190,2012-11-23 19:15:00
11:35 AM,46.4,24.8,43,30.29,10.0,South,24.2,29.9,N/A,,Clear,190,2012-11-23 19:35:00
11:55 AM,46.4,24.8,43,30.30,10.0,South,21.9,27.6,N/A,,Clear,180,2012-11-23 19:55:00
12:15 PM,46.4,23.0,40,30.28,10.0,South,20.7,28.8,N/A,,Clear,180,2012-11-23 20:15:00
12:35 PM,46.4,23.0,40,30.28,10.0,South,16.1,-,N/A,,Clear,170,2012-11-23 20:35:00
12:55 PM,46.4,23.0,40,30.27,10.0,South,21.9,27.6,N/A,,Clear,170,2012-11-23 20:55:00
1:15 PM,46.4,23.0,40,30.26,10.0,South,16.1,25.3,N/A,,Clear,170,2012-11-23 21:15:00
1:35 PM,46.4,23.0,40,30.25,10.0,South,19.6,27.6,N/A,,Clear,190,2012-11-23 21:35:00
1:55 PM,46.4,23.0,40,30.24,10.0,South,19.6,27.6,N/A,,Clear,180,2012-11-23 21:55:00
2:15 PM,46.4,24.8,43,30.24,10.0,South,20.7,26.5,N/A,,Clear,180,2012-11-23 22:15:00
2:35 PM,46.4,24.8,43,30.24,10.0,South,24.2,28.8,N/A,,Clear,190,2012-11-23 22:35:00
2:55 PM,46.4,24.8,43,30.24,10.0,South,25.3,31.1,N/A,,Partly Cloudy,190,2012-11-23 22:55:00
3:15 PM,46.4,24.8,43,30.23,10.0,South,21.9,34.5,N/A,,Clear,190,2012-11-23 23:15:00
3:35 PM,44.6,24.8,46,30.22,10.0,South,20.7,28.8,N/A,,Partly Cloudy,180,2012-11-23 23:35:00
3:55 PM,44.6,23.0,43,30.21,10.0,South,25.3,29.9,N/A,,Partly Cloudy,180,2012-11-23 23:55:00
4:15 PM,44.6,23.0,43,30.21,10.0,South,25.3,28.8,N/A,,Clear,190,2012-11-24 00:15:00
4:35 PM,44.6,24.8,46,30.20,10.0,SSW,24.2,33.4,N/A,,Clear,200,2012-11-24 00:35:00
4:55 PM,44.6,24.8,46,30.20,10.0,South,26.5,35.7,N/A,,Partly Cloudy,190,2012-11-24 00:55:00
5:15 PM,44.6,24.8,46,30.20,10.0,South,24.2,29.9,N/A,,Partly Cloudy,190,2012-11-24 01:15:00
5:35 PM,44.6,24.8,46,30.20,10.0,South,25.3,31.1,N/A,,Mostly Cloudy,190,2012-11-24 01:35:00
5:55 PM,44.6,24.8,46,30.19,10.0,South,23.0,32.2,N/A,,Overcast,190,2012-11-24 01:55:00
6:15 PM,44.6,24.8,46,30.20,10.0,South,17.3,25.3,N/A,,Overcast,190,2012-11-24 02:15:00
6:35 PM,44.6,24.8,46,30.19,10.0,South,15.0,23.0,N/A,,Overcast,190,2012-11-24 02:35:00
6:55 PM,44.6,24.8,46,30.18,10.0,South,18.4,25.3,N/A,,Overcast,190,2012-11-24 02:55:00
7:15 PM,44.6,24.8,46,30.19,10.0,South,15.0,21.9,N/A,,Overcast,180,2012-11-24 03:15:00
7:35 PM,44.6,24.8,46,30.19,10.0,South,26.5,31.1,N/A,,Overcast,190,2012-11-24 03:35:00
7:55 PM,44.6,24.8,46,30.17,10.0,South,26.5,31.1,N/A,,Overcast,190,2012-11-24 03:55:00
8:15 PM,46.4,24.8,43,30.16,10.0,South,24.2,33.4,N/A,,Overcast,190,2012-11-24 04:15:00
8:35 PM,44.6,24.8,46,30.18,10.0,South,17.3,23.0,N/A,,Overcast,190,2012-11-24 04:35:00
8:55 PM,46.4,24.8,43,30.17,10.0,South,20.7,-,N/A,,Overcast,190,2012-11-24 04:55:00
9:15 PM,44.6,23.0,43,30.17,10.0,South,23.0,32.2,N/A,,Overcast,190,2012-11-24 05:15:00
9:35 PM,44.6,24.8,46,30.17,10.0,South,20.7,32.2,N/A,,Overcast,190,2012-11-24 05:35:00
9:55 PM,44.6,24.8,46,30.18,10.0,South,20.7,24.2,N/A,,Overcast,190,2012-11-24 05:55:00
10:15 PM,46.4,24.8,43,30.17,10.0,South,20.7,27.6,N/A,,Overcast,190,2012-11-24 06:15:00
10:35 PM,44.6,24.8,46,30.17,10.0,South,19.6,26.5,N/A,,Overcast,190,2012-11-24 06:35:00
10:55 PM,44.6,24.8,46,30.15,10.0,South,21.9,27.6,N/A,,Overcast,180,2012-11-24 06:55:00
11:15 PM,44.6,24.8,46,30.16,10.0,South,18.4,-,N/A,,Overcast,180,2012-11-24 07:15:00
11:35 PM,44.6,24.8,46,30.15,10.0,South,17.3,25.3,N/A,,Overcast,180,2012-11-24 07:35:00
11:55 PM,44.6,24.8,46,30.15,10.0,South,13.8,20.7,N/A,,Overcast,170,2012-11-24 07:55:00